FW6799 Weather Reports


Display with metric or nautical units.
time (UTC)temp
F
wind
direction
speed
MPH
gust
MPH
rain 1hr
in
rain 24hr
in
rain mn
in
humidity
%
barometer
mb
20260504020053 75 115 11.0 24.0 0.00 0.00 0.00 26 1021.1
20260504014544 74 114 14.0 22.0 0.00 0.00 0.00 26 1021.4
20260504013053 74 110 13.0 19.0 0.00 0.00 0.00 27 1021.5
20260504011547 72 101 9.0 17.0 0.00 0.00 0.00 28 1021.5
20260504010056 73 76 8.0 20.0 0.00 0.00 0.00 28 1021.4
20260504004547 71 133 9.0 24.0 0.00 0.00 0.00 29 1021.3
20260504003049 70 131 9.0 23.0 0.00 0.00 0.00 30 1021.0
20260504001556 68 76 9.0 20.0 0.00 0.00 0.00 31 1021.1
20260504000054 67 114 9.0 15.0 0.00 0.00 0.00 32 1021.0
20260503234551 66 129 9.0 16.0 0.00 0.00 0.00 33 1020.8
20260503233053 65 141 6.0 12.0 0.00 0.00 0.00 34 1020.7
20260503231551 64 149 3.0 10.0 0.00 0.00 0.00 34 1020.5
20260503230114 63 137 5.0 11.0 0.00 0.00 0.00 35 1020.5
20260503224547 62 110 5.0 10.0 0.00 0.00 0.00 35 1020.3
20260503223109 62 133 3.0 10.0 0.00 0.00 0.00 35 1020.1
20260503221555 62 133 4.0 10.0 0.00 0.00 0.00 34 1020.0
20260503220107 62 133 5.0 10.0 0.00 0.00 0.00 34 1019.5
20260503214859 62 138 5.0 12.0 0.00 0.00 0.00 33 1019.3
20260503214804 62 138 5.0 12.0 0.00 0.00 0.00 33 1019.3
20260503213130 62 156 5.0 9.0 0.00 0.00 0.00 33 1019.1
20260503211657 62 158 5.0 10.0 0.00 0.00 0.00 32 1019.0
20260503211605 62 158 5.0 10.0 0.00 0.00 0.00 32 1019.0
20260503210138 62 118 3.0 6.0 0.00 0.00 0.00 32 1018.7
20260503204548 62 147 1.0 6.0 0.00 0.00 0.00 31 1018.6
20260503203050 63 110 4.0 10.0 0.00 0.00 0.00 30 1018.6
20260503201551 64 133 4.0 9.0 0.00 0.00 0.00 29 1018.7
20260503200050 64 99 6.0 10.0 0.00 0.00 0.00 28 1018.7
20260503194603 65 130 6.0 9.0 0.00 0.00 0.00 28 1018.8
20260503193052 65 107 6.0 10.0 0.00 0.00 0.00 27 1018.8
20260503191554 65 136 7.0 12.0 0.00 0.00 0.00 27 1018.6
20260503190145 66 144 7.0 12.0 0.00 0.00 0.00 26 1018.5
20260503184548 66 133 5.0 11.0 0.00 0.00 0.00 25 1018.5
20260503183058 66 123 6.0 10.0 0.00 0.00 0.00 25 1018.4
20260503181602 66 111 6.0 9.0 0.00 0.00 0.00 24 1018.3
20260503180053 66 141 3.0 10.0 0.00 0.00 0.00 24 1018.5
20260503174553 66 141 3.0 10.0 0.00 0.00 0.00 24 1018.5
20260503173047 67 130 5.0 10.0 0.00 0.00 0.00 23 1018.3
20260503171550 68 150 5.0 10.0 0.00 0.00 0.00 23 1018.5
20260503170117 68 152 5.0 10.0 0.00 0.00 0.00 23 1018.8
20260503140129 70 123 4.0 8.0 0.00 0.00 0.00 22 1019.1
20260503081546 83 150 5.0 14.0 0.00 0.00 0.00 20 1015.8
20260503071549 84 121 9.0 16.0 0.00 0.00 0.00 20 1015.7
20260503054551 83 95 7.0 14.0 0.00 0.00 0.00 20 1016.4
20260503053047 83 180 11.0 16.0 0.00 0.00 0.00 19 1016.4
20260503051552 83 107 8.0 13.0 0.00 0.00 0.00 19 1016.5
20260503050049 83 102 8.0 18.0 0.00 0.00 0.00 18 1016.7
20260503044602 82 160 9.0 21.0 0.00 0.00 0.00 19 1017.1
20260503043050 82 132 9.0 16.0 0.00 0.00 0.00 19 1017.2
20260503041604 82 134 10.0 17.0 0.00 0.00 0.00 18 1017.5
20260503040052 81 117 7.0 16.0 0.00 0.00 0.00 18 1017.8
20260503034546 80 108 9.0 17.0 0.00 0.00 0.00 18 1018.1
20260503033103 79 107 9.0 17.0 0.00 0.00 0.00 19 1018.4
20260503031549 78 138 10.0 15.0 0.00 0.00 0.00 19 1018.8
20260503030050 79 118 11.0 17.0 0.00 0.00 0.00 18 1018.9
20260503024601 78 75 9.0 16.0 0.00 0.00 0.00 19 1019.2
20260503023054 76 139 8.0 16.0 0.00 0.00 0.00 19 1019.4
20260503021553 76 123 12.0 19.0 0.00 0.00 0.00 19 1020.0